This demonstration page uses our WeatherBlox Daily Observations layout. Learn more.

Hourly Observations for March 11, 2017

Temp ( °F °C ) Dew Point ( °F °C ) Humidity (%) Winds ( mph kmh ) Pressure ( in mb ) Visibility ( mi km ) Precip ( " mm )
12:15 am 00:15 Clear 26 -3.3 7 -13.7 45 45 ESE 16 26 30.39 1029 10 16.0934 0 0
12:35 am 00:35 Mostly Cloudy 26 -3.3 8 -13.6 45 45 ESE 17 28 30.39 1029 10 16.0934 0 0
12:55 am 00:55 Cloudy 26 -3.5 7 -13.7 46 46 ESE 15 24 30.39 1029 10 16.0934 0 0
1:15 am 01:15 Cloudy with Light Snow 26 -3.5 9 -12.9 49 49 ESE 13 20 30.39 1029 7 11.26538 0 0
1:35 am 01:35 Cloudy 26 -3.5 8 -13.1 48 48 ESE 13 20 30.39 1029 10 16.0934 0 0
1:55 am 01:55 Cloudy 26 -3.5 8 -13.1 48 48 E 10 17 30.42 1030 10 16.0934 0 0
2:15 am 02:15 Cloudy 26 -3.5 9 -12.9 49 49 ESE 13 20 30.42 1030 10 16.0934 0 0
2:35 am 02:35 Cloudy 26 -3.6 8 -13.1 48 48 ESE 14 22 30.42 1030 10 16.0934 0 0
2:55 am 02:55 Cloudy 25 -3.7 8 -13.5 47 47 ESE 13 20 30.39 1029 10 16.0934 0 0
3:15 am 03:15 Cloudy 26 -3.5 8 -13.5 46 46 ESE 12 19 30.42 1030 10 16.0934 0 0
3:35 am 03:35 Cloudy 26 -3.5 8 -13.6 46 46 E 12 19 30.42 1030 10 16.0934 0 0
3:55 am 03:55 Cloudy 26 -3.5 7 -13.8 45 45 E 13 20 30.42 1030 10 16.0934 0 0
4:15 am 04:15 Cloudy 26 -3.6 7 -13.7 46 46 E 13 20 30.42 1030 10 16.0934 0 0
4:35 am 04:35 Cloudy 25 -4 9 -12.6 52 52 E 13 20 30.45 1031 10 16.0934 0 0
4:55 am 04:55 Cloudy 23 -5 13 -10.5 66 66 E 12 19 30.45 1031 10 16.0934 0 0
5:15 am 05:15 Cloudy 23 -5.2 14 -10 69 69 E 10 17 30.45 1031 10 16.0934 0 0
5:35 am 05:35 Cloudy 23 -5.2 14 -9.9 70 70 ESE 9 15 30.45 1031 10 16.0934 0 0
5:55 am 05:55 Cloudy 23 -5.2 15 -9.6 72 72 E 10 17 30.45 1031 10 16.0934 0 0
6:15 am 06:15 Cloudy 23 -5.2 15 -9.5 72 72 E 8 13 30.48 1032 10 16.0934 0 0
6:35 am 06:35 Cloudy 22 -5.3 15 -9.4 73 73 ENE 8 13 30.48 1032 10 16.0934 0 0
6:55 am 06:55 Cloudy with Light Snow 22 -5.5 15 -9.2 75 75 E 9 15 30.48 1032 7 11.26538 0 0
7:15 am 07:15 Cloudy with Light Snow 21 -5.9 16 -8.7 81 81 E 8 13 30.5 1033 2 3.21868 0 0
7:35 am 07:35 Cloudy with Light Snow 21 -6 17 -8.1 85 85 E 7 11 30.5 1033 1.25 2.011675 0 0
7:55 am 07:55 Cloudy with Light Snow 21 -6 18 -7.7 88 88 E 7 11 30.5 1033 1.75 2.816345 0 0
8:15 am 08:15 Cloudy with Light Snow 22 -5.7 19 -7.5 87 87 E 6 9 30.5 1033 3 4.82802 0 0
8:35 am 08:35 Cloudy with Light Snow 22 -5.5 19 -7.3 87 87 ESE 7 11 30.5 1033 7 11.26538 0 0
8:55 am 08:55 Cloudy with Light Snow 22 -5.4 19 -7.4 86 86 E 7 11 30.53 1034 5 8.0467 0 0
9:15 am 09:15 Cloudy with Light Snow 23 -5.1 19 -7.2 85 85 E 3 6 30.53 1034 5 8.0467 0 0
9:35 am 09:35 Cloudy 23 -4.9 19 -7 85 85 SE 5 7 30.53 1034 10 16.0934 0 0
9:55 am 09:55 Cloudy 24 -4.5 20 -6.6 85 85 SE 5 7 30.53 1034 10 16.0934 0 0
10:15 am 10:15 Cloudy 24 -4.4 20 -6.6 85 85 SSE 7 11 30.53 1034 10 16.0934 0 0
10:35 am 10:35 Cloudy 25 -4.1 20 -6.5 84 84 S 3 6 30.56 1035 10 16.0934 0 0
10:55 am 10:55 Cloudy 25 -3.9 20 -6.5 82 82 Calm 30.56 1035 10 16.0934 0 0
11:15 am 11:15 Cloudy 26 -3.6 21 -6.1 83 83 Calm 30.56 1035 10 16.0934 0 0
11:35 am 11:35 Cloudy 27 -2.9 22 -5.4 83 83 Calm 30.56 1035 10 16.0934 0 0
11:55 am 11:55 Cloudy 28 -2.5 22 -5.3 81 81 SW 3 6 30.53 1034 10 16.0934 0 0
12:15 pm 12:15 Cloudy 28 -2.5 22 -5.6 80 80 Calm 30.56 1035 10 16.0934 0 0
12:35 pm 12:35 Cloudy 29 -1.9 22 -5.4 77 77 Calm 30.53 1034 10 16.0934 0 0
12:55 pm 12:55 Cloudy 30 -1.3 23 -5 76 76 Calm 30.53 1034 10 16.0934 0 0
1:15 pm 13:15 Cloudy 30 -1 23 -4.8 76 76 Calm 30.53 1034 10 16.0934 0 0
1:35 pm 13:35 Cloudy 31 -0.5 24 -4.5 75 75 SSW 3 6 30.5 1033 10 16.0934 0 0
1:55 pm 13:55 Cloudy 31 -0.3 24 -4.5 74 74 SSW 3 6 30.5 1033 10 16.0934 0 0
2:15 pm 14:15 Cloudy 32 0.1 24 -4.3 73 73 Calm 30.48 1032 10 16.0934 0 0
2:35 pm 14:35 Cloudy 34 1 25 -4 70 70 Calm 30.48 1032 10 16.0934 0 0
2:55 pm 14:55 Cloudy 34 1 24 -4.4 68 68 Calm 30.48 1032 10 16.0934 0 0
3:15 pm 15:15 Cloudy 34 1.1 24 -4.4 67 67 W 3 6 30.48 1032 10 16.0934 0 0
3:35 pm 15:35 Cloudy 34 1.3 24 -4.3 67 67 Calm 30.48 1032 10 16.0934 0 0
3:55 pm 15:55 Cloudy 35 1.4 24 -4.4 66 66 Calm 30.48 1032 10 16.0934 0 0
4:15 pm 16:15 Cloudy 35 1.5 24 -4.4 65 65 Calm 30.48 1032 10 16.0934 0 0
4:35 pm 16:35 Cloudy 35 1.6 24 -4.4 65 65 NNW 5 7 30.48 1032 10 16.0934 0 0
4:55 pm 16:55 Cloudy 36 2 24 -4.4 63 63 Calm 30.48 1032 10 16.0934 0 0
5:15 pm 17:15 Cloudy 35 1.8 24 -4.4 64 64 E 3 6 30.48 1032 10 16.0934 0 0
5:35 pm 17:35 Mostly Cloudy 35 1.5 24 -4.4 65 65 Calm 30.48 1032 10 16.0934 0 0
5:55 pm 17:55 Cloudy 35 1.5 24 -4.4 65 65 Calm 30.48 1032 10 16.0934 0 0
6:15 pm 18:15 Cloudy 35 1.5 24 -4.3 66 66 SSE 3 6 30.48 1032 10 16.0934 0 0
6:35 pm 18:35 Cloudy 34 1.3 24 -4.2 67 67 SSE 3 6 30.48 1032 10 16.0934 0 0
6:55 pm 18:55 Cloudy 33 0.3 24 -4.6 70 70 SSE 3 6 30.48 1032 10 16.0934 0 0
7:15 pm 19:15 Cloudy 32 0 23 -4.8 70 70 SSE 3 6 30.48 1032 10 16.0934 0 0
7:35 pm 19:35 Mostly Cloudy 32 -0.2 23 -4.9 71 71 Calm 30.5 1033 10 16.0934 0 0
7:55 pm 19:55 Clear 29 -1.8 21 -5.9 74 74 S 3 6 30.5 1033 10 16.0934 0 0
8:15 pm 20:15 Partly Cloudy 27 -3 22 -5.7 82 82 Calm 30.56 1035 10 16.0934 0 0
8:35 pm 20:35 Mostly Cloudy 26 -3.4 21 -6 82 82 ESE 5 7 30.56 1035 10 16.0934 0 0
8:55 pm 20:55 Partly Cloudy 27 -3 21 -6 80 80 SE 7 11 30.56 1035 10 16.0934 0 0
9:15 pm 21:15 Clear 24 -4.7 20 -6.8 85 85 SE 8 13 30.53 1034 10 16.0934 0 0
9:35 pm 21:35 Clear 26 -3.6 22 -5.5 87 87 SSE 5 7 30.53 1034 10 16.0934 0 0
9:55 pm 21:55 Clear 25 -3.8 21 -6.2 84 84 SE 5 7 30.53 1034 10 16.0934 0 0
10:15 pm 22:15 Clear 25 -4.1 21 -5.9 87 87 SSE 3 6 30.53 1034 10 16.0934 0 0
10:35 pm 22:35 Mostly Cloudy 26 -3.5 23 -5.2 88 88 SSE 7 11 30.53 1034 10 16.0934 0 0
10:55 pm 22:55 Cloudy 24 -4.4 20 -6.4 86 86 SSE 5 7 30.53 1034 10 16.0934 0 0
11:15 pm 23:15 Partly Cloudy 24 -4.7 21 -6.1 90 90 SSE 5 7 30.53 1034 10 16.0934 0 0
11:35 pm 23:35 Clear 22 -5.6 20 -6.9 91 91 SE 5 7 30.5 1033 10 16.0934 0 0
11:55 pm 23:55 Clear 21 -6.2 19 -7.3 92 92 SE 5 7 30.5 1033 10 16.0934 0 0

Powered by AerisWeather